User: anonymous   Login
Location: Unspecified
(0.0000°N, 0.0000°E)
Time: 20:40:18
(UTC+00:00)
Language:

IGS RADAR-5 - Orbit

View from above orbital plane
View from above orbital plane
View from above satellite
View from above satellite

Ground track
Ground track

The orbit data is extracted from the following two-line orbital elements,

1 42072U 17015A   21130.86209670 0.00000000  00000-0  00000-0 0    07
2 42072  97.3667 202.7070 0001917 349.5403  10.4454 15.25979970    01
Epoch (UTC): 10 May 2021 20:41:25
Eccentricity: 0.0001917
inclination: 97.3667°
perigee height: 486 km
apogee height: 489 km
right ascension of ascending node: 202.7070°
argument of perigee: 349.5403°
revolutions per day: 15.25979970
mean anomaly at epoch: 10.4454°
orbit number at epoch: 0

The dashed part of the orbit path shows where the satellite is in the earth's shadow,  

DLR